Theta_e
351 349 348 350 350 350 352 352 352 350 349 347 345 344 347 346 344 348 351 349 349 351 351 349 347 351 350 351 349 350 349 348 350 350 350 351 348 348 350 348 347 347 348
353 354 353 353 352 349 346 347 351 350 348 347 346 347 344 343 350 351 352 348 350 351 351 348 350 351 347 349 352 353 351 350 349 351 351 351 351 350 348 346 351 349 351
356 355 355 356 355 351 347 347 353 351 349 346 347 347 350 350 350 351 348 347 351 349 349 351 348 348 350 354 353 352 352 351 350 350 351 352 351 351 350 351 352 351 351
349 356 355 350 350 351 353 352 350 352 352 342 345 343 350 351 351 351 348 348 350 352 351 352 351 348 351 355 353 352 353 351 351 352 352 351 351 351 351 350 349 349 349
348 349 345 341 345 350 350 349 349 352 353 350 345 343 344 347 350 351 352 352 350 352 352 352 352 352 349 351 349 352 352 352 351 350 350 349 349 349 350 349 350 349 349
350 349 350 345 352 356 354 350 350 352 352 352 350 349 349 348 347 348 348 350 352 349 352 352 350 347 346 347 347 349 351 351 351 351 350 349 351 350 350 350 350 350 348
345 345 345 348 352 355 356 355 354 351 351 352 351 350 349 348 344 345 343 346 352 352 352 350 351 350 348 350 347 348 349 348 348 348 350 350 350 351 351 350 351 350 348
339 342 345 345 348 351 353 353 352 353 354 353 352 351 349 348 344 342 341 346 349 352 352 350 349 351 352 351 349 350 352 351 348 347 348 351 350 351 350 350 350 349 347
331 330 334 345 346 347 348 350 351 350 351 353 353 352 351 350 347 344 345 347 348 349 351 350 351 351 351 347 350 352 352 351 350 346 346 347 347 347 348 347 346 345 343
330 330 326 333 346 346 345 347 348 350 349 351 353 353 350 351 349 345 345 347 348 349 350 351 348 349 349 346 348 350 351 350 347 348 349 347 346 346 344 343 344 341 338
322 326 331 331 337 345 343 344 346 349 349 349 350 352 353 351 351 347 345 347 349 349 348 347 348 348 345 346 346 351 351 349 348 348 349 349 348 346 342 337 339 339 339
327 328 331 329 335 339 343 342 344 347 348 350 348 351 352 351 349 349 347 345 348 349 349 349 348 348 345 346 346 346 346 346 347 348 348 346 345 342 339 338 337 338 340
327 328 330 331 332 337 343 342 342 345 346 346 348 349 351 348 349 349 347 347 345 348 349 350 349 348 345 346 347 347 346 343 346 348 348 345 344 341 339 338 336 335 335
326 328 329 329 328 329 334 340 341 342 343 345 346 350 349 345 345 349 348 347 346 346 346 349 348 347 347 346 346 346 344 343 345 347 348 346 343 339 337 338 338 338 337
326 327 326 326 327 327 329 335 341 339 340 342 346 349 347 336 331 333 333 338 345 346 345 345 345 345 344 345 345 344 341 341 343 347 347 345 342 338 338 338 338 338 338
326 326 326 326 325 326 327 330 339 337 336 338 342 348 346 341 335 334 337 334 335 345 342 342 343 343 345 347 347 345 342 342 345 346 345 344 339 337 338 338 337 337 337
326 326 326 325 325 326 327 328 335 338 336 337 341 342 341 340 339 338 336 334 332 332 340 342 343 344 345 347 346 344 342 343 343 343 340 337 337 338 338 338 337 336 335
326 325 325 325 326 326 327 328 331 336 336 338 336 338 337 334 336 337 336 328 326 329 334 340 341 344 345 346 346 344 342 341 340 339 338 338 338 338 338 337 336 334 333
326 326 326 325 326 326 326 327 329 333 335 335 335 335 337 335 333 336 335 328 332 332 332 335 337 342 344 345 345 344 342 342 342 340 339 339 339 338 337 335 334 331 331
326 325 324 326 326 326 327 327 328 332 334 336 337 335 337 333 328 329 330 327 332 334 337 336 335 337 339 342 344 344 343 343 342 340 339 339 338 336 335 334 332 331 330
327 326 325 325 325 326 328 329 328 331 334 338 336 336 337 332 335 334 334 331 332 335 336 335 334 334 337 338 342 343 343 342 340 339 339 337 336 335 333 333 331 331 329
326 327 325 324 325 327 327 328 329 332 335 337 336 335 334 332 334 336 335 334 334 332 333 333 333 335 337 339 341 343 341 339 339 339 337 336 334 333 333 332 331 330 328
328 328 326 325 326 325 325 327 330 332 336 335 335 336 334 331 331 333 334 334 334 334 333 332 334 337 338 339 340 340 339 339 338 337 336 335 334 333 331 330 329 328 326
331 331 329 326 327 329 328 329 330 331 334 334 337 337 336 333 331 332 333 333 334 334 335 334 337 339 338 339 339 338 339 339 336 335 335 334 332 330 329 329 328 326 325
330 332 333 332 329 329 331 330 330 331 333 333 337 336 336 335 334 333 333 333 335 335 336 335 337 339 339 339 339 339 338 335 335 333 333 332 330 328 328 327 326 325 324
331 333 333 331 329 330 332 334 334 335 336 336 336 336 337 337 336 335 332 333 335 335 336 335 337 339 341 340 339 338 334 333 331 330 330 329 328 327 327 326 326 326 325
Wind_Speed
24 24 21 19 12 16 19 18 18 16 17 17 14 14 17 18 19 18 15 13 12 11 12 12 13 10 12 9 9 8 7 8 6 3 3 4 5 4 4 5 6 6 7
19 19 20 17 15 22 10 28 20 16 15 15 16 15 19 19 17 17 16 15 12 14 13 11 10 10 12 13 10 9 7 8 7 7 5 5 5 7 9 10 7 7 8
13 13 16 15 14 16 22 28 20 16 15 16 17 16 17 18 17 16 18 18 15 16 14 13 13 13 12 10 11 9 9 8 8 9 9 6 7 8 9 9 9 8 7
12 11 12 10 11 13 12 15 17 19 17 17 18 19 18 17 16 16 18 18 16 15 15 14 14 15 14 12 11 12 10 10 9 11 11 11 11 9 9 11 11 9 11
7 11 12 15 9 9 4 4 13 18 19 19 19 21 22 23 20 17 16 15 17 16 16 16 15 16 15 15 13 12 12 11 12 13 13 11 12 11 11 9 10 9 10
7 7 10 17 15 8 7 11 20 19 19 19 19 21 21 21 25 25 19 16 17 18 18 17 17 16 16 16 17 18 16 14 13 12 11 12 13 11 10 10 9 8 8
8 11 16 17 16 12 9 10 15 17 18 22 21 21 23 22 27 27 24 20 19 19 18 20 17 17 17 16 17 17 17 17 16 12 13 15 12 11 9 9 9 10 11
9 9 10 12 12 11 8 8 13 16 19 20 21 22 23 26 29 29 29 25 24 20 20 22 21 18 18 17 17 14 15 14 16 16 16 15 12 10 10 8 9 10 11
7 9 12 11 12 10 10 10 11 13 18 18 19 22 23 24 31 33 30 21 23 26 21 21 20 20 20 21 16 15 16 16 15 16 17 16 16 14 12 8 8 9 12
10 11 12 13 12 12 10 10 12 12 17 18 19 22 27 26 29 31 31 23 22 21 20 19 23 22 21 22 20 18 19 20 16 14 12 15 15 13 12 12 10 13 14
20 16 14 15 14 13 11 10 11 12 14 18 20 20 22 23 25 28 33 28 24 21 21 19 20 24 26 24 21 17 19 17 14 13 13 11 11 11 11 11 11 11 11
16 16 14 17 14 14 11 12 11 11 14 15 18 18 18 17 21 25 27 35 30 26 23 22 21 22 24 24 23 21 19 18 14 14 14 14 14 12 10 9 9 8 10
18 16 16 14 15 14 13 12 12 12 12 14 14 14 14 11 5 15 24 29 31 32 25 23 22 23 22 24 25 24 23 21 17 17 18 17 15 12 10 9 8 9 10
18 17 17 16 16 17 16 15 14 14 14 14 15 18 12 14 11 6 12 21 27 30 29 22 25 23 20 18 20 23 24 20 21 21 19 16 13 12 13 12 10 9 10
17 17 19 21 20 19 19 18 16 19 17 16 18 22 22 26 29 18 29 16 17 24 26 20 24 22 17 17 17 16 19 20 18 20 18 16 15 13 13 11 11 11 13
19 19 21 21 22 21 19 19 20 25 25 21 23 22 26 27 31 37 43 30 26 22 23 25 24 24 21 21 21 19 17 19 19 19 18 16 14 14 13 11 10 11 12
20 22 21 21 20 21 20 18 17 18 22 22 20 27 25 29 33 42 42 21 15 17 17 23 26 24 24 24 23 22 21 21 20 18 16 16 15 14 12 12 11 10 10
23 24 22 22 21 21 21 18 18 16 15 13 16 19 23 27 29 31 27 17 15 20 16 17 15 22 23 25 24 23 22 20 20 18 17 16 15 14 13 12 11 11 10
20 20 20 20 21 21 20 19 19 18 18 16 13 16 19 29 30 35 32 22 12 11 14 15 20 19 18 21 23 23 24 23 22 19 18 16 15 15 14 12 11 10 8
20 23 22 19 20 20 21 21 20 18 19 17 15 17 14 21 25 27 27 24 17 17 17 19 24 23 24 21 22 23 24 23 22 19 18 16 16 15 14 13 12 12 11
18 18 19 21 23 24 24 24 21 19 18 19 19 20 18 16 15 17 27 28 26 26 24 23 24 26 27 26 28 23 24 23 22 20 18 17 17 16 14 12 12 12 9
17 17 16 19 20 22 26 25 20 20 19 19 19 18 19 20 19 20 21 21 22 25 24 25 26 28 30 30 31 27 25 23 21 20 19 18 17 15 14 14 13 13 12
18 17 16 18 19 19 20 23 20 19 20 19 17 15 15 18 20 21 24 25 25 23 22 26 28 29 30 31 29 29 27 24 21 21 20 20 18 17 16 15 15 14 13
17 18 17 17 17 17 19 18 19 19 17 18 17 15 16 17 18 20 22 23 23 22 21 22 29 28 26 25 26 26 22 19 20 22 22 20 19 18 17 16 16 15 14
19 19 17 16 17 18 17 17 17 18 18 19 17 17 18 18 19 20 19 21 23 22 20 26 28 22 23 26 28 24 22 25 22 21 21 19 19 20 19 17 16 15 15
18 16 14 10 13 15 15 15 15 14 17 17 19 20 20 20 21 20 22 21 21 21 20 24 25 25 25 26 25 25 25 26 23 22 21 21 21 20 19 18 17 17 17
Wind_Direction
256 257 257 245 240 271 253 249 251 244 252 251 216 220 213 217 222 216 218 219 217 220 221 228 228 212 213 222 219 225 221 218 255 262 279 312 335 331 320 296 287 277 264
253 258 256 255 197 221 300 282 252 233 234 229 206 212 215 219 212 212 216 217 214 212 214 221 225 218 220 225 213 218 219 222 242 263 283 287 294 305 304 299 281 272 266
230 245 255 251 233 207 198 236 244 224 217 212 206 216 213 211 212 216 220 218 214 216 215 219 222 218 224 218 218 226 228 225 233 247 264 271 280 289 291 288 285 281 274
219 226 234 237 231 225 206 218 236 225 211 205 206 213 218 211 210 216 223 226 222 222 218 221 224 218 220 219 224 231 234 234 236 243 256 261 269 273 272 280 283 283 285
234 257 266 273 280 229 204 230 254 232 222 215 211 216 226 224 217 213 220 225 225 222 224 221 225 225 237 225 230 237 237 248 245 238 253 258 264 262 262 277 277 287 286
0 327 324 335 332 324 283 246 247 234 222 220 216 215 215 221 224 220 221 224 223 223 225 228 227 238 241 234 240 243 247 246 243 245 254 256 262 258 267 265 269 274 285
342 340 342 349 347 336 298 253 244 233 223 222 217 215 220 225 231 231 227 233 225 223 226 228 228 232 238 236 248 248 249 254 253 247 246 258 265 260 254 249 256 260 267
316 318 323 333 340 334 317 279 253 243 233 228 224 222 221 228 231 225 232 237 228 224 225 226 228 230 231 234 246 245 246 248 245 244 246 262 263 254 249 259 263 268 271
292 304 304 309 316 328 322 312 297 271 249 240 234 227 224 230 233 229 229 227 233 234 229 231 227 229 234 242 240 243 242 244 251 253 253 259 260 253 240 242 253 271 281
289 294 298 294 288 296 304 304 300 286 270 249 242 235 232 230 237 233 225 221 228 232 232 234 239 232 236 243 242 237 240 246 246 249 254 254 248 237 234 241 254 271 282
289 289 289 293 286 275 290 293 288 284 271 259 243 240 234 233 235 232 227 223 227 233 235 232 233 240 239 243 241 231 234 243 246 244 243 237 224 229 240 250 247 249 259
277 280 283 289 293 277 275 283 281 270 271 265 250 234 230 232 243 247 238 233 229 227 236 240 238 241 241 239 237 240 238 240 240 235 231 229 229 231 240 235 239 234 239
270 270 275 278 285 283 267 268 273 268 261 265 246 222 207 207 224 283 259 251 240 235 240 239 239 247 253 242 240 242 240 234 227 226 227 229 229 229 219 229 235 236 242
258 259 265 272 280 281 272 259 257 260 260 251 236 228 202 152 162 197 296 259 247 247 241 240 241 246 246 234 238 236 231 228 227 229 226 228 220 212 221 229 236 239 246
260 262 265 265 267 272 272 262 248 254 254 264 247 231 207 208 212 232 240 260 246 234 231 230 232 232 222 227 229 226 231 231 222 222 220 217 216 220 224 227 236 241 247
262 259 261 260 258 260 263 267 260 257 265 266 252 236 214 221 216 216 211 223 228 207 197 206 212 216 220 224 221 220 219 217 213 209 213 216 218 217 224 227 230 234 251
259 261 259 254 255 251 252 253 256 263 270 265 252 239 234 242 235 224 231 220 210 215 215 207 198 205 216 221 218 211 213 211 208 208 214 215 215 222 221 226 226 240 246
259 259 254 251 248 242 243 246 247 247 256 263 256 248 248 243 220 206 209 218 198 198 211 235 235 218 212 212 211 210 209 210 208 209 212 216 219 221 216 216 223 234 234
257 256 253 251 246 241 247 249 249 246 241 246 247 255 246 237 230 221 223 242 229 225 207 221 241 241 228 222 213 207 210 212 213 209 212 215 217 208 207 213 221 219 220
258 253 246 244 243 242 245 246 245 238 238 235 239 240 234 224 226 229 230 233 240 248 250 245 242 236 229 231 226 211 213 210 211 208 211 211 205 202 207 212 215 207 214
259 254 243 240 242 243 244 241 239 234 233 238 245 247 229 217 221 226 235 242 245 249 245 240 241 242 235 233 219 212 209 206 204 202 204 201 197 201 206 209 207 212 210
256 252 242 237 242 242 240 236 231 229 232 241 244 243 233 231 237 240 241 237 239 239 243 245 238 238 231 224 212 203 201 199 196 195 196 196 195 201 200 198 204 205 201
242 248 246 241 238 233 233 229 224 224 230 238 237 237 229 234 242 247 249 244 240 241 241 237 241 233 219 217 211 197 192 196 197 194 190 188 189 197 198 198 196 196 200
249 251 253 242 235 229 227 227 226 227 229 233 231 236 241 237 241 244 248 245 239 236 233 236 223 219 213 207 205 201 194 191 192 189 185 187 190 189 188 189 194 199 195
259 260 254 250 232 228 228 225 224 226 225 229 240 249 254 242 240 238 242 243 237 228 226 224 221 217 213 205 199 188 188 192 180 180 181 184 187 184 183 187 190 192 193
257 254 250 234 225 225 225 225 223 223 228 235 251 255 254 247 243 245 239 234 232 222 221 219 214 202 205 202 193 185 187 182 188 186 179 179 177 181 184 187 189 193 188